Content
SEND FEEDBACK

Daily
Averages
Monthly
Summary
Italy

TURIN, ITALY


Home > Europe > Italy
Elevation: 941 feet     Latitude: 45 13N     Longitude: 007 39E

WEATHER
 
SELECT A DAY
Number of Records: 304,521;   Date Range: 7/1/96 - 8/10/14
 
SHARE

PRINT THIS DATA

[ ← Previous Day ]
WEATHER ALMANAC - MARCH 26, 2013
[ Next Day → ]
[ °C ]   °F
Weather ElementAverageHighLow
Temperature39 °F41 °F (1:50 pm)37.4 °F (3:50 am)
Dewpoint34.5 °F39.2 °F (12:50 am)32 °F (10:20 am)
Humidity84.2 %100 % (12:50 am)75 % (12:20 pm)
Barometer29.59 in29.86 in (2:50 pm)29.53 in (12:50 am)
Wind Speed4.6 mph10.4 mph (4:20 am)
Weather ElementAverage
Visibility3.9 mi
Wind DirectionNNE (37.6 °)

Weather ElementTotal
Precipitation---
Heating Degree Days25.8 (Base 65)
Averaged from 46 records on March 26, 2013
WEATHER CONDITIONS BREAKOUT
WIND DIRECTION BREAKOUT
WEATHER BY HOUR - MARCH 26, 2013
[ °C ]   °F
Local TimeTemperatureDewpointHumidityBarometerVisibilityWind DirectionWind SpeedGust SpeedPrecipitationEventsConditions
12:50 AM39.2 °F39.2 °F100 %29.53 in2.5 miNE (50°)8.1 mphMostly Cloudy
1:20 AM39.2 °F37.4 °F93 %29.53 in2.5 miNE (50°)5.8 mphMostly Cloudy
2:20 AM39.2 °F37.4 °F93 %29.53 in3.1 miNE (50°)5.8 mphMostly Cloudy
2:50 AM39.2 °F35.6 °F87 %29.53 in3.1 miNE (40°)9.2 mphMostly Cloudy
3:20 AM39.2 °F35.6 °F87 %29.53 in3.7 miNE (50°)9.2 mphMostly Cloudy
3:50 AM37.4 °F35.6 °F93 %29.53 in3.7 miNE (40°)8.1 mphMostly Cloudy
4:20 AM37.4 °F35.6 °F93 %29.53 in3.7 miNE (40°)10.4 mphLight Drizzle
4:50 AM37.4 °F35.6 °F93 %29.53 in3.1 miNE (40°)9.2 mphLight Drizzle
5:20 AM37.4 °F35.6 °F93 %29.53 in3.1 miNE (40°)4.6 mphLight Drizzle
5:50 AM37.4 °F35.6 °F93 %29.53 in2.2 miNNE (20°)5.8 mphLight Drizzle
6:20 AM37.4 °F35.6 °F93 %29.56 in1.7 miNNE (30°)4.6 mphLight Drizzle
6:50 AM37.4 °F35.6 °F93 %29.56 in2.2 miNNE (30°)4.6 mphLight Drizzle
7:20 AM37.4 °F35.6 °F93 %29.56 in2.5 miNNE (20°)5.8 mphOvercast
7:50 AM37.4 °F33.8 °F87 %29.56 in3.1 miENE (70°)3.5 mphOvercast
8:20 AM37.4 °F33.8 °F87 %29.56 in3.1 miENE (70°)5.8 mphOvercast
8:50 AM37.4 °F33.8 °F87 %29.59 in3.1 miENE (60°)5.8 mphOvercast
9:20 AM37.4 °F33.8 °F87 %29.59 in3.1 miNE (50°)4.6 mphOvercast
9:50 AM37.4 °F33.8 °F87 %29.59 in3.1 miENE (70°)5.8 mphOvercast
10:20 AM37.4 °F32.0 °F81 %29.59 in3.7 miNE (50°)6.9 mphOvercast
10:50 AM37.4 °F32.0 °F81 %29.59 in3.7 miENE (60°)6.9 mphOvercast
11:20 AM37.4 °F33.8 °F87 %29.59 in3.7 miENE (60°)5.8 mphOvercast
11:50 AM37.4 °F32.0 °F81 %29.59 in3.7 miEast (80°)4.6 mphOvercast
12:20 PM39.2 °F32.0 °F75 %29.59 in3.7 miENE (70°)5.8 mphOvercast
12:50 PM39.2 °F32.0 °F75 %29.59 in4.3 miENE (70°)4.6 mphOvercast
1:20 PM39.2 °F33.8 °F81 %29.59 in4.3 miEast (90°)8.1 mphOvercast
1:50 PM41.0 °F33.8 °F76 %29.59 in5.0 miENE (70°)6.9 mphOvercast
2:20 PM41.0 °F33.8 °F76 %29.59 in5.0 miEast (100°)5.8 mphMostly Cloudy
2:50 PM41.0 °F33.8 °F76 %29.86 in5.0 miVariable1.2 mphMostly Cloudy
3:20 PM41.0 °F33.8 °F76 %29.59 in5.0 miNNE (30°)3.5 mphMostly Cloudy
3:50 PM41.0 °F33.8 °F76 %29.59 in5.0 miVariable2.3 mphMostly Cloudy
4:20 PM41.0 °F33.8 °F76 %29.59 in5.0 miVariable1.2 mphMostly Cloudy
4:50 PM41.0 °F33.8 °F76 %29.59 in4.3 miNE (40°)3.5 mphMostly Cloudy
5:20 PM41.0 °F33.8 °F76 %29.56 in4.3 miENE (70°)3.5 mphMostly Cloudy
5:50 PM41.0 °F33.8 °F76 %29.59 in5.0 miVariable2.3 mphMostly Cloudy
6:20 PM41.0 °F33.8 °F76 %29.59 in5.0 miVariable1.2 mphMostly Cloudy
6:50 PM41.0 °F33.8 °F76 %29.59 in5.0 miVariable2.3 mphMostly Cloudy
7:20 PM41.0 °F33.8 °F76 %29.59 in5.0 miVariable2.3 mphMostly Cloudy
7:50 PM41.0 °F33.8 °F76 %29.59 in5.0 miVariable2.3 mphMostly Cloudy
8:20 PM39.2 °F33.8 °F81 %29.62 in5.0 miCalmMostly Cloudy
8:50 PM39.2 °F35.6 °F87 %29.62 in5.0 miCalmMostly Cloudy
9:20 PM39.2 °F35.6 °F87 %29.62 in4.3 miNE (40°)3.5 mphMostly Cloudy
9:50 PM39.2 °F35.6 °F87 %29.65 in4.3 miNE (40°)3.5 mphMostly Cloudy
10:20 PM39.2 °F35.6 °F87 %29.65 in4.3 miNNE (20°)3.5 mphMostly Cloudy
10:50 PM39.2 °F33.8 °F81 %29.65 in4.3 miCalmMostly Cloudy
11:20 PM39.2 °F35.6 °F87 %29.65 in4.3 miCalmMostly Cloudy
11:50 PM39.2 °F35.6 °F87 %29.68 in4.3 miNNE (20°)3.5 mphMostly Cloudy
Hourly data recorded from LIMF, located miles away from Turin, Italy







STORIES FROM OUR PARTNERS